Tampa, FL

10:49 PM EDT on October 19, 2017 (GMT -0400)
Tampa International

Weather History for KTPA - May, 2013

Change the Weather History Date:

Saturday, May 18, 2013

  Actual Average Record
Temperature  
Mean Temperature 81 °F 79 °F  
Max Temperature 88 °F 88 °F 97 °F (2017)
Min Temperature 73 °F 70 °F 58 °F (1967)
Degree Days  
Heating Degree Days 0 0  
Month to date heating degree days 0 0  
Since 1 July heating degree days 400 538  
Cooling Degree Days 16 14  
Month to date cooling degree days 187 220  
Year to date cooling degree days 765 680  
Growing Degree Days 30 (Base 50)    
Moisture  
Dew Point 67 °F    
Average Humidity 65    
Maximum Humidity 87    
Minimum Humidity 42    
Precipitation  
Precipitation 0.00 in 0.06 in 1.26 in (2009)
Month to date precipitation 1.01 0.96  
Year to date precipitation 8.28 11.06  
Sea Level Pressure  
Sea Level Pressure 30.08 in    
Wind  
Wind Speed 7 mph (SSW)    
Max Wind Speed 15 mph    
Max Gust Speed 21 mph    
Visibility 10 miles    
Events      
T = Trace of Precipitation, MM = Missing Value Source: NWS Daily Summary

Daily Weather History Graph

Daily Weather History Graph

Search for Another Location

Airport or City:

Trip Planner

Search our weather history database for the weather conditions in past years. The results will help you decide how hot, cold, wet, or windy it might be!

Date:

Astronomy

May. 18, 2013 Rise Set
Actual Time 6:38 AM EDT 8:14 PM EDT
Civil Twilight 6:13 AM EDT 8:40 PM EDT
Nautical Twilight 5:42 AM EDT 9:11 PM EDT
Astronomical Twilight 5:10 AM EDT 9:43 PM EDT
Moon 1:50 PM EDT (5/18) 1:54 AM EDT (5/18)
Length of Visible Light 14h 27m
Length of Day
13h 35m
First Quarter, 55% of the Moon is Illuminated
May 18
First Quarter
May 25
Full
May 31
Last Quarter
Jun 8
New
Jun 16
First Quarter

Hourly Weather History & Observations

Time (EDT) Temp. Heat Index Dew Point Humidity Pressure Visibility Wind Dir Wind Speed Gust Speed Precip Events Conditions
12:53 AM 78.1 °F - 66.0 °F 66% 30.10 in 10.0 mi ESE 5.8 mph - N/A   Scattered Clouds
1:53 AM 75.9 °F - 66.0 °F 71% 30.09 in 10.0 mi ESE 4.6 mph - N/A   Clear
2:53 AM 75.0 °F - 66.9 °F 76% 30.08 in 10.0 mi ESE 3.5 mph - N/A   Clear
3:53 AM 73.9 °F - 66.9 °F 79% 30.07 in 10.0 mi East 5.8 mph - N/A   Clear
4:53 AM 73.9 °F - 68.0 °F 82% 30.07 in 10.0 mi ESE 3.5 mph - N/A   Clear
5:53 AM 73.0 °F - 68.0 °F 84% 30.08 in 10.0 mi East 3.5 mph - N/A   Clear
6:53 AM 73.0 °F - 69.1 °F 87% 30.09 in 10.0 mi ESE 3.5 mph - N/A   Partly Cloudy
7:53 AM 75.0 °F - 70.0 °F 84% 30.10 in 9.0 mi SE 3.5 mph - N/A   Partly Cloudy
8:53 AM 77.0 °F - 71.1 °F 82% 30.12 in 10.0 mi SE 4.6 mph - N/A   Partly Cloudy
9:53 AM 80.1 °F 83.2 °F 70.0 °F 71% 30.13 in 10.0 mi Variable 3.5 mph - N/A   Partly Cloudy
10:53 AM 81.0 °F 85.2 °F 72.0 °F 74% 30.12 in 10.0 mi SW 9.2 mph - N/A   Scattered Clouds
11:53 AM 84.0 °F 87.0 °F 68.0 °F 58% 30.12 in 10.0 mi SW 8.1 mph - N/A   Partly Cloudy
12:53 PM 84.9 °F 88.8 °F 69.1 °F 59% 30.10 in 10.0 mi SSW 11.5 mph - N/A   Partly Cloudy
1:53 PM 86.0 °F 88.2 °F 66.0 °F 51% 30.09 in 10.0 mi SSW 10.4 mph - N/A   Partly Cloudy
2:53 PM 87.8 °F 89.4 °F 64.4 °F 46% 30.07 in 10.0 mi WSW 9.2 mph - N/A   Clear
3:53 PM 87.1 °F 89.2 °F 66.0 °F 49% 30.06 in 10.0 mi West 13.8 mph - N/A   Clear
4:53 PM 86.0 °F 86.1 °F 61.0 °F 43% 30.04 in 10.0 mi West 12.7 mph - N/A   Partly Cloudy
5:53 PM 84.9 °F 85.9 °F 63.0 °F 48% 30.03 in 10.0 mi West 10.4 mph - N/A   Partly Cloudy
6:53 PM 84.0 °F 84.5 °F 62.1 °F 47% 30.04 in 10.0 mi West 9.2 mph - N/A   Partly Cloudy
7:53 PM 81.0 °F 82.7 °F 64.9 °F 58% 30.04 in 10.0 mi WNW 5.8 mph - N/A   Partly Cloudy
8:53 PM 79.0 °F - 66.9 °F 66% 30.05 in 10.0 mi WNW 8.1 mph - N/A   Partly Cloudy
9:53 PM 77.0 °F - 69.1 °F 76% 30.06 in 10.0 mi WNW 5.8 mph - N/A   Partly Cloudy
10:53 PM 77.0 °F - 70.0 °F 79% 30.09 in 10.0 mi NNE 4.6 mph - N/A   Partly Cloudy
11:53 PM 77.0 °F - 70.0 °F 79% 30.09 in 10.0 mi NE 4.6 mph - N/A   Scattered Clouds